Check out our new BloomSky Weather System.

Active alerts


No alerts


Thunder radar  blitzortung!


Rain radar more information rain snow radar


Visit our other weather sites:

Template documentation
and downloads

And another site



Weather Underground History page Text

Daily Summary for April 15, 2017 Units:  Metric    English   Both
« Previous Day
Next Day »
Daily Weekly Monthly Yearly Custom
  High: Low: Average:
Temperature: -17.8 °C 16.9 °C 22.9 °C
Dew Point: -17.8 °C 15.6 °C 18.4 °C
Humidity: Humidity % 53 % 78 %
Wind Speed: 0 km/h 0 km/h 4.2 km/h
Wind Gust: 0 km/h - -
Wind:- - SSE
Pressure: 0 hPa 1015.5 hPa -
Precipitation: 0 mm    
Historical Graphs
 
 
Tabular Data for April 15, 2017
Time Temperature Dew Point Pressure Wind Wind Speed Wind Gust Humidity Rainfall Rate (Hourly)
-17.8 °C -17.8 °C 0 hPa Calm     Humidity % 0 mm
00:00 20.2 °C 18.7 °C 1017.5 hPa Calm   1.6 km/h 91 % 0 mm
00:05 20.1 °C 18.6 °C 1017.5 hPa Calm   1.6 km/h 91 % 0 mm
00:10 20 °C 18.5 °C 1017.5 hPa Calm   1.6 km/h 91 % 0 mm
00:15 19.8 °C 18.3 °C 1017.5 hPa Calm   1.6 km/h 91 % 0 mm
00:20 19.7 °C 18.4 °C 1017.5 hPa Calm     92 % 0 mm
00:25 19.6 °C 18.3 °C 1017.5 hPa Calm     92 % 0 mm
00:30 19.4 °C 18.1 °C 1017.5 hPa Calm     92 % 0 mm
00:35 19.3 °C 18 °C 1017.5 hPa Calm     92 % 0 mm
00:40 19.2 °C 18 °C 1017.5 hPa Calm     93 % 0 mm
00:45 19.1 °C 17.9 °C 1017.5 hPa Calm     93 % 0 mm
00:50 18.9 °C 17.7 °C 1017.5 hPa Calm     93 % 0 mm
00:55 18.9 °C 17.9 °C 1017.5 hPa Calm     94 % 0 mm
01:00 18.8 °C 17.8 °C 1017.5 hPa Calm     94 % 0 mm
01:05 18.7 °C 17.7 °C 1017.5 hPa Calm     94 % 0 mm
01:10 18.6 °C 17.6 °C 1017.5 hPa Calm     94 % 0 mm
01:15 18.4 °C 17.4 °C 1017.5 hPa Calm     94 % 0 mm
01:20 18.4 °C 17.6 °C 1017.5 hPa Calm     95 % 0 mm
01:25 18.4 °C 17.6 °C 1017.2 hPa Calm     95 % 0 mm
01:30 18.4 °C 17.6 °C 1017.2 hPa Calm     95 % 0 mm
01:35 18.4 °C 17.6 °C 1017.2 hPa Calm     95 % 0 mm
01:40 18.4 °C 17.6 °C 1017.2 hPa Calm     95 % 0 mm
01:46 18.3 °C 17.5 °C 1017.2 hPa Calm     95 % 0 mm
01:51 18.3 °C 17.5 °C 1017.2 hPa Calm   1.6 km/h 95 % 0 mm
01:56 18.3 °C 17.5 °C 1017.2 hPa Calm   1.6 km/h 95 % 0 mm
02:01 18.3 °C 17.5 °C 1017.2 hPa Calm   1.6 km/h 95 % 0 mm
02:06 18.2 °C 17.4 °C 1017.2 hPa Calm     95 % 0 mm
02:11 18.1 °C 17.3 °C 1017.2 hPa Calm     95 % 0 mm
02:16 18.1 °C 17.3 °C 1017.2 hPa Calm     95 % 0 mm
02:21 18 °C 17.4 °C 1017.2 hPa Calm     96 % 0 mm
02:26 18 °C 17.2 °C 1017.2 hPa Calm     95 % 0 mm
02:31 17.9 °C 17.3 °C 1017.2 hPa Calm     96 % 0 mm
02:36 17.9 °C 17.3 °C 1016.8 hPa Calm     96 % 0 mm
02:41 17.9 °C 17.3 °C 1016.8 hPa Calm     96 % 0 mm
02:46 17.9 °C 17.3 °C 1017.2 hPa Calm     96 % 0 mm
02:51 17.9 °C 17.3 °C 1016.8 hPa Calm     96 % 0 mm
02:56 17.9 °C 17.3 °C 1016.8 hPa Calm     96 % 0 mm
03:01 17.8 °C 17.2 °C 1016.8 hPa Calm     96 % 0 mm
03:06 17.8 °C 17.2 °C 1016.8 hPa Calm     96 % 0 mm
03:11 17.8 °C 17.2 °C 1016.8 hPa Calm     96 % 0 mm
03:16 17.8 °C 17.2 °C 1016.8 hPa Calm     96 % 0 mm
03:21 17.7 °C 17.1 °C 1016.5 hPa Calm     96 % 0 mm
03:26 17.7 °C 17.1 °C 1016.5 hPa Calm     96 % 0 mm
03:31 17.6 °C 17 °C 1016.5 hPa Calm     96 % 0 mm
03:41 17.5 °C 17 °C 1016.5 hPa Calm     97 % 0 mm
03:46 17.6 °C 17.1 °C 1016.5 hPa Calm     97 % 0 mm
03:51 17.7 °C 17.2 °C 1016.5 hPa Calm   3.2 km/h 97 % 0 mm
03:56 17.6 °C 17.1 °C 1016.1 hPa Calm   3.2 km/h 97 % 0 mm
04:01 17.6 °C 17.1 °C 1016.5 hPa Calm   3.2 km/h 97 % 0 mm
04:06 17.4 °C 16.9 °C 1016.5 hPa Calm     97 % 0 mm
04:11 17.3 °C 16.7 °C 1016.5 hPa Calm     96 % 0 mm
04:16 17.3 °C 16.8 °C 1016.5 hPa Calm     97 % 0 mm
04:21 17.3 °C 16.8 °C 1016.5 hPa Calm     97 % 0 mm
04:26 17.2 °C 16.7 °C 1016.5 hPa Calm     97 % 0 mm
04:31 17.2 °C 16.7 °C 1016.5 hPa Calm     97 % 0 mm
04:36 17.3 °C 16.8 °C 1016.5 hPa Calm     97 % 0 mm
04:41 17.3 °C 16.8 °C 1016.5 hPa Calm     97 % 0 mm
04:46 17.3 °C 16.8 °C 1016.5 hPa Calm     97 % 0 mm
04:52 17.4 °C 17.1 °C 1016.5 hPa Calm   1.6 km/h 98 % 0 mm
04:57 17.4 °C 16.9 °C 1016.8 hPa Calm   1.6 km/h 97 % 0 mm
05:02 17.5 °C 17.2 °C 1016.8 hPa Calm   1.6 km/h 98 % 0 mm
05:07 17.6 °C 17.3 °C 1016.8 hPa Calm   1.6 km/h 98 % 0 mm
05:12 17.6 °C 17.3 °C 1016.8 hPa Calm   1.6 km/h 98 % 0 mm
05:17 17.6 °C 17.1 °C 1016.5 hPa Calm   1.6 km/h 97 % 0 mm
05:22 17.4 °C 16.9 °C 1016.5 hPa Calm     97 % 0 mm
05:32 17.2 °C 16.7 °C 1016.8 hPa Calm     97 % 0 mm
05:37 17.2 °C 16.7 °C 1016.8 hPa Calm     97 % 0 mm
05:42 17.2 °C 16.9 °C 1016.8 hPa Calm     98 % 0 mm
05:47 17.2 °C 16.9 °C 1016.8 hPa Calm     98 % 0 mm
05:52 17.1 °C 16.8 °C 1016.5 hPa Calm   1.6 km/h 98 % 0 mm
05:57 17 °C 16.7 °C 1016.8 hPa Calm   1.6 km/h 98 % 0 mm
06:02 17 °C 16.7 °C 1016.8 hPa Calm   1.6 km/h 98 % 0 mm
06:07 16.9 °C 16.6 °C 1016.8 hPa Calm     98 % 0 mm
06:17 17.1 °C 16.8 °C 1016.8 hPa Calm     98 % 0 mm
06:22 17.1 °C 16.8 °C 1016.8 hPa Calm     98 % 0 mm
06:26 17.2 °C 16.9 °C 1016.8 hPa Calm     98 % 0 mm
06:32 17.3 °C 17 °C 1016.8 hPa Calm   1.6 km/h 98 % 0 mm
06:37 17.3 °C 17 °C 1016.8 hPa Calm   1.6 km/h 98 % 0 mm
06:42 17.4 °C 17.1 °C 1017.2 hPa Calm   1.6 km/h 98 % 0 mm
06:47 17.4 °C 17.1 °C 1017.2 hPa NE 1.6 km/h   98 % 0 mm
06:52 17.5 °C 17.2 °C 1017.2 hPa Calm   1.6 km/h 98 % 0 mm
06:57 17.6 °C 17.3 °C 1017.2 hPa Calm   1.6 km/h 98 % 0 mm
07:02 17.7 °C 17.5 °C 1017.2 hPa Calm   1.6 km/h 99 % 0 mm
07:07 17.8 °C 17.6 °C 1017.5 hPa Calm   1.6 km/h 99 % 0 mm
07:12 17.9 °C 17.7 °C 1017.5 hPa Calm   1.6 km/h 99 % 0 mm
07:17 17.9 °C 17.6 °C 1017.5 hPa Calm   1.6 km/h 98 % 0 mm
07:22 17.9 °C 17.6 °C 1017.5 hPa Calm   4.8 km/h 98 % 0 mm
07:27 18 °C 17.7 °C 1017.5 hPa Calm   4.8 km/h 98 % 0 mm
07:32 18.1 °C 17.9 °C 1017.5 hPa Calm   4.8 km/h 99 % 0 mm
07:37 18.1 °C 17.9 °C 1017.5 hPa Calm   3.2 km/h 99 % 0 mm
07:42 18.2 °C 17.9 °C 1017.5 hPa Calm   3.2 km/h 98 % 0 mm
07:47 18.2 °C 18 °C 1017.8 hPa Calm   1.6 km/h 99 % 0 mm
07:52 18.3 °C 18.1 °C 1017.8 hPa Calm   1.6 km/h 99 % 0 mm
07:57 18.3 °C 18.1 °C 1017.8 hPa Calm   1.6 km/h 99 % 0 mm
08:02 18.4 °C 18.2 °C 1017.8 hPa Calm   1.6 km/h 99 % 0 mm
08:07 18.6 °C 18.4 °C 1017.8 hPa East 1.6 km/h 3.2 km/h 99 % 0 mm
08:12 18.6 °C 18.4 °C 1017.8 hPa Calm   4.8 km/h 99 % 0 mm
08:17 18.8 °C 18.6 °C 1017.8 hPa ENE 1.6 km/h 4.8 km/h 99 % 0 mm
08:22 18.8 °C 18.6 °C 1017.8 hPa Calm   4.8 km/h 99 % 0 mm
08:27 19.1 °C 18.9 °C 1017.8 hPa Calm   3.2 km/h 99 % 0 mm
08:32 19.1 °C 18.9 °C 1018.2 hPa Calm   3.2 km/h 99 % 0 mm
08:37 19.2 °C 19 °C 1017.8 hPa Calm   1.6 km/h 99 % 0 mm
08:42 19.4 °C 19.2 °C 1017.8 hPa Calm   1.6 km/h 99 % 0 mm
08:47 19.7 °C 19.5 °C 1017.8 hPa Calm   1.6 km/h 99 % 0 mm
08:52 19.7 °C 19.5 °C 1017.8 hPa Calm   1.6 km/h 99 % 0 mm
08:57 20 °C 19.8 °C 1017.8 hPa Calm   1.6 km/h 99 % 0 mm
09:02 20.3 °C 20.1 °C 1018.2 hPa Calm   1.6 km/h 99 % 0 mm
09:07 20.4 °C 20.2 °C 1018.2 hPa Calm   3.2 km/h 99 % 0 mm
09:12 20.9 °C 20.7 °C 1018.2 hPa Calm   3.2 km/h 99 % 0 mm
09:17 21.2 °C 20.9 °C 1018.2 hPa Calm   3.2 km/h 98 % 0 mm
09:22 21.6 °C 21.4 °C 1018.5 hPa Calm   3.2 km/h 99 % 0 mm
09:27 21.8 °C 21.5 °C 1018.5 hPa SE 1.6 km/h 3.2 km/h 98 % 0 mm
09:32 21.9 °C 21.4 °C 1018.5 hPa South 1.6 km/h 4.8 km/h 97 % 0 mm
09:37 22.1 °C 21.6 °C 1018.5 hPa Calm   4.8 km/h 97 % 0 mm
09:42 22.3 °C 21.6 °C 1018.5 hPa SE 3.2 km/h 6.4 km/h 96 % 0 mm
09:47 22.2 °C 21.2 °C 1018.5 hPa SSE 4.8 km/h 8 km/h 94 % 0 mm
09:52 22.5 °C 21.5 °C 1018.5 hPa SSE 3.2 km/h 8 km/h 94 % 0 mm
09:57 22.8 °C 21.3 °C 1018.5 hPa SSW 1.6 km/h 8 km/h 91 % 0 mm
10:02 23.3 °C 21.2 °C 1018.5 hPa SE 6.4 km/h 8 km/h 88 % 0 mm
10:07 23.8 °C 21.1 °C 1018.5 hPa SSE 6.4 km/h 9.7 km/h 85 % 0 mm
10:12 24 °C 20.7 °C 1018.5 hPa SSE 4.8 km/h 14.5 km/h 82 % 0 mm
10:17 24 °C 20.5 °C 1018.5 hPa ESE 6.4 km/h 14.5 km/h 81 % 0 mm
10:22 24 °C 20.5 °C 1018.5 hPa SE 4.8 km/h 14.5 km/h 81 % 0 mm
10:27 24.2 °C 20.9 °C 1018.5 hPa SE 4.8 km/h 12.9 km/h 82 % 0 mm
10:32 24.5 °C 20.8 °C 1018.5 hPa SSE 4.8 km/h 11.3 km/h 80 % 0 mm
10:37 24.7 °C 20.6 °C 1018.8 hPa SSW 6.4 km/h 11.3 km/h 78 % 0 mm
10:38 24.7 °C 20.6 °C 1018.8 hPa South 4.8 km/h 11.3 km/h 78 % 0 mm
10:43 24.8 °C 20.7 °C 1018.5 hPa SSE 1.6 km/h 11.3 km/h 78 % 0 mm
10:48 25.1 °C 20.6 °C 1018.5 hPa ESE 6.4 km/h 11.3 km/h 76 % 0 mm
10:53 24.9 °C 19.9 °C 1018.5 hPa South 6.4 km/h 9.7 km/h 74 % 0 mm
10:58 24.8 °C 20.3 °C 1018.5 hPa SE 4.8 km/h 14.5 km/h 76 % 0 mm
11:03 24.7 °C 20.4 °C 1018.5 hPa ESE 3.2 km/h 14.5 km/h 77 % 0 mm
11:08 24.8 °C 20.3 °C 1018.5 hPa South 4.8 km/h 14.5 km/h 76 % 0 mm
11:10 24.8 °C 20.1 °C 1018.5 hPa ESE 3.2 km/h 11.3 km/h 75 % 0 mm
11:15 24.9 °C 20.8 °C 1018.5 hPa SSW 3.2 km/h 8 km/h 78 % 0 mm
11:20 25.2 °C 20.5 °C 1018.5 hPa SSE 6.4 km/h 16.1 km/h 75 % 0 mm
11:25 25.8 °C 19.9 °C 1018.5 hPa SSW 9.7 km/h 16.1 km/h 70 % 0 mm
11:26 25.8 °C 19.9 °C 1018.5 hPa SE 6.4 km/h 16.1 km/h 70 % 0 mm
11:31 25.9 °C 19.5 °C 1018.5 hPa ESE 9.7 km/h 16.1 km/h 68 % 0 mm
11:36 26 °C 20.1 °C 1018.5 hPa SSE 12.9 km/h 16.1 km/h 70 % 0 mm
11:41 26.1 °C 19.7 °C 1018.5 hPa SSE 4.8 km/h 16.1 km/h 68 % 0 mm
11:46 26.2 °C 20.3 °C 1018.5 hPa South 1.6 km/h 16.1 km/h 70 % 0 mm
11:51 26.4 °C 20 °C 1018.2 hPa SSW 4.8 km/h 14.5 km/h 68 % 0 mm
11:56 26.6 °C 19.7 °C 1018.2 hPa ESE 12.9 km/h 14.5 km/h 66 % 0 mm
12:01 26.7 °C 19.8 °C 1018.2 hPa South 9.7 km/h 14.5 km/h 66 % 0 mm
12:06 26.8 °C 19.7 °C 1018.2 hPa South 8 km/h 14.5 km/h 65 % 0 mm
12:11 26.9 °C 20.5 °C 1018.2 hPa SE 3.2 km/h 16.1 km/h 68 % 0 mm
12:16 27 °C 19.6 °C 1018.2 hPa SE 9.7 km/h 16.1 km/h 64 % 0 mm
12:21 27.1 °C 19.4 °C 1018.2 hPa ESE 4.8 km/h 16.1 km/h 63 % 0 mm
12:26 27.1 °C 20 °C 1018.2 hPa East 4.8 km/h 14.5 km/h 65 % 0 mm
12:31 27.2 °C 19.5 °C 1017.8 hPa ESE 4.8 km/h 25.7 km/h 63 % 0 mm
12:36 27.4 °C 20 °C 1017.8 hPa SE 8 km/h 25.7 km/h 64 % 0 mm
12:41 27.6 °C 19.7 °C 1017.8 hPa SE 8 km/h 25.7 km/h 62 % 0 mm
12:46 27.6 °C 19.4 °C 1017.8 hPa SSE 8 km/h 14.5 km/h 61 % 0 mm
12:51 27.6 °C 19.4 °C 1017.8 hPa SSE 9.7 km/h 16.1 km/h 61 % 0 mm
12:56 27.7 °C 19 °C 1017.8 hPa SE 14.5 km/h 17.7 km/h 59 % 0 mm
13:01 27.8 °C 19.3 °C 1017.8 hPa SE 6.4 km/h 20.9 km/h 60 % 0 mm
13:06 27.9 °C 18.9 °C 1017.8 hPa SE 3.2 km/h 20.9 km/h 58 % 0 mm
13:11 27.8 °C 19.1 °C 1017.8 hPa ESE 8 km/h 20.9 km/h 59 % 0 mm
13:16 27.9 °C 19.7 °C 1017.5 hPa SE 6.4 km/h 17.7 km/h 61 % 0 mm
13:21 28.2 °C 18.9 °C 1017.5 hPa SE 9.7 km/h 17.7 km/h 57 % 0 mm
13:26 28.1 °C 18.8 °C 1017.5 hPa South 9.7 km/h 17.7 km/h 57 % 0 mm
13:31 28 °C 18.1 °C 1017.5 hPa SSE 16.1 km/h 17.7 km/h 55 % 0 mm
13:36 28 °C 18.7 °C 1017.5 hPa South 14.5 km/h 17.7 km/h 57 % 0 mm
13:41 28.2 °C 17.7 °C 1017.5 hPa SSW 8 km/h 19.3 km/h 53 % 0 mm
13:46 28.4 °C 19.1 °C 1017.5 hPa SE 8 km/h 19.3 km/h 57 % 0 mm
13:56 28.6 °C 19.2 °C 1017.2 hPa West 4.8 km/h 19.3 km/h 57 % 0 mm
14:01 28.5 °C 18.9 °C 1017.2 hPa South 4.8 km/h 19.3 km/h 56 % 0 mm
14:06 28.2 °C 18.6 °C 1017.2 hPa SE 6.4 km/h 17.7 km/h 56 % 0 mm
14:11 28.2 °C 18.3 °C 1017.2 hPa SSW 6.4 km/h 19.3 km/h 55 % 0 mm
14:16 27.9 °C 18 °C 1017.2 hPa SSE 6.4 km/h 19.3 km/h 55 % 0 mm
14:21 28 °C 18.4 °C 1017.2 hPa SSE 8 km/h 19.3 km/h 56 % 0 mm
14:26 27.9 °C 18.6 °C 1017.2 hPa SSW 8 km/h 19.3 km/h 57 % 0 mm
14:31 27.9 °C 18.9 °C 1016.8 hPa SSW 8 km/h 19.3 km/h 58 % 0 mm
14:36 28.2 °C 18.6 °C 1016.8 hPa SE 4.8 km/h 19.3 km/h 56 % 0 mm
14:41 28 °C 18.4 °C 1016.8 hPa ESE 1.6 km/h 16.1 km/h 56 % 0 mm
14:42 28 °C 18.4 °C 1016.8 hPa SE 4.8 km/h 16.1 km/h 56 % 0 mm
14:47 28 °C 18.4 °C 1016.8 hPa East 8 km/h 17.7 km/h 56 % 0 mm
14:52 28.2 °C 19.2 °C 1016.8 hPa SE 6.4 km/h 17.7 km/h 58 % 0 mm
14:57 28.3 °C 19.2 °C 1016.8 hPa SSE 8 km/h 17.7 km/h 58 % 0 mm
15:07 28.9 °C 19 °C 1016.5 hPa SSE 8 km/h 19.3 km/h 55 % 0 mm
15:12 28.7 °C 19.1 °C 1016.5 hPa ESE 11.3 km/h 20.9 km/h 56 % 0 mm
15:17 28.8 °C 19.4 °C 1016.5 hPa SW 9.7 km/h 20.9 km/h 57 % 0 mm
15:22 28.4 °C 19.3 °C 1016.5 hPa SE 4.8 km/h 20.9 km/h 58 % 0 mm
15:27 28.7 °C 19.9 °C 1016.5 hPa SE 6.4 km/h 19.3 km/h 59 % 0 mm
15:32 28.4 °C 19.1 °C 1016.5 hPa South 3.2 km/h 19.3 km/h 57 % 0 mm
15:33 28.3 °C 19 °C 1016.5 hPa SE 4.8 km/h 19.3 km/h 57 % 0 mm
15:38 28.3 °C 19.2 °C 1016.5 hPa SSE 11.3 km/h 16.1 km/h 58 % 0 mm
15:43 28.5 °C 19.2 °C 1016.1 hPa SSW 11.3 km/h 19.3 km/h 57 % 0 mm
15:48 28.3 °C 19.5 °C 1016.1 hPa SE 11.3 km/h 19.3 km/h 59 % 0 mm
15:53 28.6 °C 19.5 °C 1016.1 hPa East 6.4 km/h 19.3 km/h 58 % 0 mm
15:58 28.7 °C 19.6 °C 1016.1 hPa SE 9.7 km/h 17.7 km/h 58 % 0 mm
16:03 28.8 °C 18.9 °C 1016.1 hPa SSE 9.7 km/h 17.7 km/h 55 % 0 mm
16:08 28.9 °C 19.2 °C 1016.1 hPa SW 9.7 km/h 19.3 km/h 56 % 0 mm
16:13 28.8 °C 19.4 °C 1016.1 hPa SSE 6.4 km/h 24.1 km/h 57 % 0 mm
16:18 28.9 °C 19.2 °C 1016.1 hPa SSW 9.7 km/h 24.1 km/h 56 % 0 mm
16:23 28.8 °C 19.4 °C 1015.8 hPa SSE 6.4 km/h 24.1 km/h 57 % 0 mm
16:28 28.8 °C 19.4 °C 1015.8 hPa ESE 9.7 km/h 19.3 km/h 57 % 0 mm
16:33 28.4 °C 19.3 °C 1015.8 hPa SSE 11.3 km/h 20.9 km/h 58 % 0 mm
16:38 28.4 °C 19.1 °C 1015.8 hPa SSE 16.1 km/h 20.9 km/h 57 % 0 mm
16:43 28.6 °C 19.8 °C 1015.8 hPa SSE 6.4 km/h 22.5 km/h 59 % 0 mm
16:48 28.6 °C 19 °C 1015.8 hPa SE 3.2 km/h 22.5 km/h 56 % 0 mm
16:53 28.7 °C 19.1 °C 1015.8 hPa SE 16.1 km/h 22.5 km/h 56 % 0 mm
16:58 28.6 °C 19.2 °C 1015.5 hPa ESE 4.8 km/h 19.3 km/h 57 % 0 mm
16:59 28.6 °C 19 °C 1015.5 hPa East 11.3 km/h 19.3 km/h 56 % 0 mm
17:04 28.7 °C 19.3 °C 1015.5 hPa SSW 14.5 km/h 19.3 km/h 57 % 0 mm
17:09 28.7 °C 19.6 °C 1015.5 hPa South 16.1 km/h 19.3 km/h 58 % 0 mm
17:14 28.6 °C 18.7 °C 1015.5 hPa SE 9.7 km/h 19.3 km/h 55 % 0 mm
17:19 28.5 °C 18.9 °C 1015.5 hPa SE 8 km/h 24.1 km/h 56 % 0 mm
17:24 28.6 °C 19.5 °C 1015.5 hPa SW 4.8 km/h 24.1 km/h 58 % 0 mm
17:29 28.5 °C 19.4 °C 1015.5 hPa SSE 12.9 km/h 24.1 km/h 58 % 0 mm
17:34 28.5 °C 19.4 °C 1015.5 hPa South 8 km/h 17.7 km/h 58 % 0 mm
17:39 28.3 °C 19.5 °C 1015.5 hPa SSE 8 km/h 17.7 km/h 59 % 0 mm
17:44 28.1 °C 19.3 °C 1015.5 hPa SSE 11.3 km/h 17.7 km/h 59 % 0 mm
17:49 28.2 °C 19.7 °C 1015.5 hPa SSE 11.3 km/h 17.7 km/h 60 % 0 mm
17:54 28.2 °C 19.7 °C 1015.5 hPa SSE 12.9 km/h 16.1 km/h 60 % 0 mm
17:59 28 °C 19 °C 1015.5 hPa ESE 16.1 km/h 20.9 km/h 58 % 0 mm
18:04 27.8 °C 19.1 °C 1015.8 hPa ESE 11.3 km/h 20.9 km/h 59 % 0 mm
18:09 27.7 °C 19 °C 1015.8 hPa East 14.5 km/h 20.9 km/h 59 % 0 mm
18:14 27.7 °C 19.2 °C 1015.8 hPa South 8 km/h 19.3 km/h 60 % 0 mm
18:19 27.7 °C 19 °C 1015.8 hPa South 6.4 km/h 19.3 km/h 59 % 0 mm
18:24 27.7 °C 19.2 °C 1015.8 hPa South 8 km/h 17.7 km/h 60 % 0 mm
18:29 27.7 °C 19 °C 1015.8 hPa SE 14.5 km/h 17.7 km/h 59 % 0 mm
18:34 27.4 °C 18.4 °C 1015.8 hPa SE 9.7 km/h 17.7 km/h 58 % 0 mm
18:39 27.2 °C 18.5 °C 1015.8 hPa SSE 12.9 km/h 20.9 km/h 59 % 0 mm
18:44 27.2 °C 18.5 °C 1015.8 hPa South 6.4 km/h 20.9 km/h 59 % 0 mm
18:49 27.1 °C 18.4 °C 1015.8 hPa SSE 6.4 km/h 20.9 km/h 59 % 0 mm
18:54 26.9 °C 18.5 °C 1015.8 hPa SSE 4.8 km/h 19.3 km/h 60 % 0 mm
18:59 26.8 °C 17.6 °C 1015.8 hPa SSE 6.4 km/h 19.3 km/h 57 % 0 mm
19:04 26.8 °C 17 °C 1015.8 hPa ESE 14.5 km/h 19.3 km/h 55 % 0 mm
19:09 26.7 °C 16.9 °C 1015.8 hPa South 8 km/h 17.7 km/h 55 % 0 mm
19:14 26.6 °C 16.5 °C 1015.8 hPa SSE 8 km/h 17.7 km/h 54 % 0 mm
19:19 26.5 °C 16.1 °C 1015.8 hPa SSE 4.8 km/h 17.7 km/h 53 % 0 mm
19:24 26.3 °C 16 °C 1015.8 hPa SE 8 km/h 16.1 km/h 53 % 0 mm
19:29 26.2 °C 15.9 °C 1015.8 hPa ESE 11.3 km/h 16.1 km/h 53 % 0 mm
19:34 26 °C 15.7 °C 1015.8 hPa SE 9.7 km/h 16.1 km/h 53 % 0 mm
19:39 25.9 °C 15.6 °C 1015.8 hPa South 11.3 km/h 14.5 km/h 53 % 0 mm
19:45 25.8 °C 15.8 °C 1015.8 hPa South 8 km/h 16.1 km/h 54 % 0 mm
19:50 25.5 °C 15.8 °C 1016.1 hPa SE 8 km/h 16.1 km/h 55 % 0 mm
19:55 25.4 °C 16 °C 1016.1 hPa SSE 3.2 km/h 16.1 km/h 56 % 0 mm
20:00 25.2 °C 16.1 °C 1016.1 hPa SE 8 km/h 12.9 km/h 57 % 0 mm
20:05 25.1 °C 16.3 °C 1016.1 hPa SSW 9.7 km/h 12.9 km/h 58 % 0 mm
20:10 24.9 °C 16.3 °C 1016.1 hPa South 3.2 km/h 12.9 km/h 59 % 0 mm
20:15 24.7 °C 16.4 °C 1016.1 hPa SSE 4.8 km/h 12.9 km/h 60 % 0 mm
20:20 24.6 °C 16.6 °C 1016.1 hPa ESE 6.4 km/h 12.9 km/h 61 % 0 mm
20:25 24.6 °C 16.8 °C 1016.1 hPa East 6.4 km/h 11.3 km/h 62 % 0 mm
20:30 24.5 °C 17 °C 1016.1 hPa ESE 8 km/h 9.7 km/h 63 % 0 mm
20:35 24.4 °C 16.9 °C 1016.1 hPa ESE 4.8 km/h 11.3 km/h 63 % 0 mm
20:40 24.3 °C 17.1 °C 1016.5 hPa East 4.8 km/h 11.3 km/h 64 % 0 mm
20:45 24.2 °C 17.2 °C 1016.5 hPa East 3.2 km/h 11.3 km/h 65 % 0 mm
20:50 24.1 °C 17.3 °C 1016.5 hPa SSE 3.2 km/h 8 km/h 66 % 0 mm
20:55 23.9 °C 17.4 °C 1016.5 hPa East 8 km/h 8 km/h 67 % 0 mm
21:00 23.9 °C 17.9 °C 1016.5 hPa SSE 6.4 km/h 11.3 km/h 69 % 0 mm
21:05 23.9 °C 18.1 °C 1016.5 hPa SSE 4.8 km/h 11.3 km/h 70 % 0 mm
21:10 23.9 °C 18.3 °C 1016.8 hPa ESE 6.4 km/h 11.3 km/h 71 % 0 mm
21:15 23.9 °C 18.3 °C 1016.8 hPa Calm   11.3 km/h 71 % 0 mm
21:20 23.8 °C 18.4 °C 1017.2 hPa ESE 1.6 km/h 11.3 km/h 72 % 0 mm
21:25 23.6 °C 18.5 °C 1017.2 hPa ESE 8 km/h 11.3 km/h 73 % 0 mm
21:30 23.6 °C 18.7 °C 1017.2 hPa SSE 1.6 km/h 8 km/h 74 % 0 mm
21:35 23.4 °C 18.7 °C 1017.2 hPa SSE 3.2 km/h 8 km/h 75 % 0 mm
21:40 23.4 °C 18.9 °C 1017.2 hPa SSW 1.6 km/h 8 km/h 76 % 0 mm
21:45 23.3 °C 19 °C 1017.2 hPa South 4.8 km/h 6.4 km/h 77 % 0 mm
21:50 23.2 °C 18.9 °C 1017.2 hPa SSE 3.2 km/h 6.4 km/h 77 % 0 mm
21:55 23.2 °C 19.4 °C 1017.2 hPa SSE 6.4 km/h 9.7 km/h 79 % 0 mm
22:00 23.2 °C 19.6 °C 1017.2 hPa SSE 6.4 km/h 12.9 km/h 80 % 0 mm
22:05 23.3 °C 19.7 °C 1017.5 hPa East 6.4 km/h 14.5 km/h 80 % 0 mm
22:10 23.3 °C 19.9 °C 1017.5 hPa East 6.4 km/h 14.5 km/h 81 % 0 mm
22:15 23.2 °C 19.8 °C 1017.5 hPa SE 3.2 km/h 14.5 km/h 81 % 0 mm
22:20 23.1 °C 19.9 °C 1017.5 hPa SSW 9.7 km/h 12.9 km/h 82 % 0 mm
22:25 23.1 °C 19.9 °C 1017.5 hPa SE 3.2 km/h 14.5 km/h 82 % 0 mm
22:30 22.9 °C 19.9 °C 1017.5 hPa SE 1.6 km/h 14.5 km/h 83 % 0 mm
22:35 22.9 °C 19.9 °C 1017.5 hPa ESE 3.2 km/h 14.5 km/h 83 % 0 mm
22:40 22.9 °C 20.1 °C 1017.8 hPa SE 4.8 km/h 9.7 km/h 84 % 0 mm
22:45 22.8 °C 20 °C 1017.8 hPa South 3.2 km/h 9.7 km/h 84 % 0 mm
22:50 22.7 °C 20 °C 1017.8 hPa East 3.2 km/h 8 km/h 85 % 0 mm
22:55 22.6 °C 19.9 °C 1017.8 hPa ESE 3.2 km/h 8 km/h 85 % 0 mm
23:00 22.6 °C 19.9 °C 1017.5 hPa East 4.8 km/h 6.4 km/h 85 % 0 mm
23:05 22.5 °C 20 °C 1017.8 hPa ESE 3.2 km/h 6.4 km/h 86 % 0 mm
23:10 22.5 °C 20 °C 1017.8 hPa ESE 1.6 km/h 6.4 km/h 86 % 0 mm
23:15 22.4 °C 20.1 °C 1017.5 hPa SE 3.2 km/h 8 km/h 87 % 0 mm
23:21 22.4 °C 20.1 °C 1017.5 hPa SE 3.2 km/h 8 km/h 87 % 0 mm
23:26 22.4 °C 20.1 °C 1017.2 hPa East 4.8 km/h 8 km/h 87 % 0 mm
23:30 22.4 °C 20.3 °C 1017.2 hPa SSE 6.4 km/h 8 km/h 88 % 0 mm
23:36 22.3 °C 20.2 °C 1017.5 hPa ESE 1.6 km/h 8 km/h 88 % 0 mm
23:41 22.3 °C 20.4 °C 1017.2 hPa ESE 6.4 km/h 9.7 km/h 89 % 0 mm
23:46 22.3 °C 20.4 °C 1017.2 hPa ESE 6.4 km/h 9.7 km/h 89 % 0 mm
23:51 22.2 °C 20.3 °C 1017.2 hPa ESE 3.2 km/h 9.7 km/h 89 % 0 mm
23:56 22.2 °C 20.5 °C 1017.5 hPa SSE 1.6 km/h 8 km/h 90 % 0 mm
Spring, Texas: Villages of Bridgestone
Compliments of Weather Underground - 3 mb

Script developed by  Jim McMurry - jmcmurry@mwt.net Adapted for the template by  Wim van der Kuil - Leuven-Template.eu

You find our weather info also at:

UK Metoffice

WeatherCloud

Weather Underground

Mid-South Weather Network

AWEKAS

Citizen Weather Observer Program (CWOP)

HAMweather, WeatherForYou, PWS Weather

Equipment we use:

Weather-station
Davis Vantage Vue

Weather-program
Meteohub

Weather-server
Debian 7.9 x86 (Guest)

Provider
DreamHost

Davis Vantage Vue

Meteohub

Debian 7.9 x86 (Guest)

DreamHost